Location: Peterborough
(44.3091°N, 78.3197°W)
Time: 04:03:31
(UTC-04:00)

Tiros 1 despin weight - Pass Details

Date: 24 March 2023
Orbit: 586 x 632 km, 48.2° (Epoch: 08 June)

Event Time Altitude Azimuth Distance (km) Brightness Sun altitude
Rises 04:09:47 0° 291° (WNW) 2,851 - -30.7°
Reaches altitude 10° 04:12:07 10° 286° (WNW) 1,954 - -30.4°
Maximum altitude 04:16:27 49° 212° (SSW) 795 - -29.8°
Drops below altitude 10° 04:20:49 10° 138° (SE) 1,976 - -29.1°
Exits shadow 04:21:48 - 135° (SE) 2,349 ? -29.0°
Sets 04:23:12 0° 133° (SE) 2,887 ? -28.8°
